Time,TemperatureF,DewpointF,PressureIn,WindDirection,WindDirectionDegrees,WindSpeedMPH,WindSpeedGustMPH,Humidity,HourlyPrecipIn,Conditions,Clouds,dailyrainin,SoftwareType,DateUTC
2013-02-18 00:00:00,20.5,2.0,30.16,NNW,338,13.4,13.4,44,0.00,,,0.00,WUHU216HW,2013-02-18 05:00:00,
2013-02-18 00:05:00,20.5,2.0,30.16,WNW,293,8.5,13.4,44,0.00,,,0.00,WUHU216HW,2013-02-18 05:05:00,
2013-02-18 00:10:00,20.5,2.0,30.16,WNW,293,5.6,12.1,44,0.00,,,0.00,WUHU216HW,2013-02-18 05:10:00,
2013-02-18 00:15:00,20.5,2.0,30.16,North,0,4.0,13.4,44,0.00,,,0.00,WUHU216HW,2013-02-18 05:15:00,
2013-02-18 00:20:00,20.5,2.0,30.16,NW,315,3.4,13.4,44,0.00,,,0.00,WUHU216HW,2013-02-18 05:20:00,
2013-02-18 00:25:00,20.5,2.0,30.16,WNW,293,11.2,11.4,44,0.00,,,0.00,WUHU216HW,2013-02-18 05:25:00,
2013-02-18 00:30:00,20.5,2.0,30.16,WNW,293,7.6,11.4,44,0.00,,,0.00,WUHU216HW,2013-02-18 05:30:00,
2013-02-18 00:35:00,20.3,1.8,30.16,NW,315,9.2,10.7,44,0.00,,,0.00,WUHU216HW,2013-02-18 05:35:00,
2013-02-18 00:40:00,20.3,2.3,30.16,WNW,293,3.4,10.7,45,0.00,,,0.00,WUHU216HW,2013-02-18 05:40:00,
2013-02-18 00:45:00,20.3,2.3,30.16,WNW,293,3.4,3.4,45,0.00,,,0.00,WUHU216HW,2013-02-18 05:45:00,
2013-02-18 01:00:00,20.2,2.5,30.17,West,270,6.0,6.0,46,0.00,,,0.00,WUHU216HW,2013-02-18 06:00:00,
2013-02-18 01:05:00,20.2,2.5,30.17,WSW,248,4.9,6.7,46,0.00,,,0.00,WUHU216HW,2013-02-18 06:05:00,
2013-02-18 01:10:00,20.2,2.5,30.17,NW,315,12.1,15.0,46,0.00,,,0.00,WUHU216HW,2013-02-18 06:10:00,
2013-02-18 01:15:00,20.2,2.5,30.18,NW,315,5.4,15.0,46,0.00,,,0.00,WUHU216HW,2013-02-18 06:15:00,
2013-02-18 01:20:00,20.0,2.4,30.18,WNW,293,7.8,12.1,46,0.00,,,0.00,WUHU216HW,2013-02-18 06:20:00,
2013-02-18 01:25:00,20.0,1.9,30.18,WNW,293,6.9,11.2,45,0.00,,,0.00,WUHU216HW,2013-02-18 06:25:00,
2013-02-18 01:30:00,20.2,2.1,30.18,West,270,10.5,10.5,45,0.00,,,0.00,WUHU216HW,2013-02-18 06:30:00,
2013-02-18 01:35:00,20.2,2.1,30.18,NNW,338,9.6,10.5,45,0.00,,,0.00,WUHU216HW,2013-02-18 06:35:00,
2013-02-18 01:41:00,20.2,2.1,30.18,NW,315,11.2,11.6,45,0.00,,,0.00,WUHU216HW,2013-02-18 06:41:00,
2013-02-18 01:46:00,20.0,1.9,30.18,WNW,293,5.6,11.6,45,0.00,,,0.00,WUHU216HW,2013-02-18 06:46:00,
2013-02-18 01:51:00,19.8,1.8,30.18,WNW,293,1.3,10.3,45,0.00,,,0.00,WUHU216HW,2013-02-18 06:51:00,
2013-02-18 01:56:00,19.8,1.8,30.18,North,0,6.0,8.7,45,0.00,,,0.00,WUHU216HW,2013-02-18 06:56:00,
2013-02-18 02:01:00,19.8,2.3,30.19,NW,315,4.7,9.2,46,0.00,,,0.00,WUHU216HW,2013-02-18 07:01:00,
2013-02-18 02:06:00,19.6,1.6,30.19,NNW,338,5.6,12.1,45,0.00,,,0.00,WUHU216HW,2013-02-18 07:06:00,
2013-02-18 02:11:00,19.6,1.6,30.19,NNW,338,9.2,12.1,45,0.00,,,0.00,WUHU216HW,2013-02-18 07:11:00,
2013-02-18 02:16:00,19.8,1.8,30.19,West,270,12.1,12.1,45,0.00,,,0.00,WUHU216HW,2013-02-18 07:16:00,
2013-02-18 02:21:00,19.6,1.6,30.19,NNW,338,9.6,12.1,45,0.00,,,0.00,WUHU216HW,2013-02-18 07:21:00,
2013-02-18 02:33:00,19.6,1.6,30.19,NW,315,3.4,8.9,45,0.00,,,0.00,WUHU216HW,2013-02-18 07:33:00,
2013-02-18 02:38:00,19.6,2.1,30.20,NNW,338,4.5,12.1,46,0.00,,,0.00,WUHU216HW,2013-02-18 07:38:00,
2013-02-18 02:43:00,19.6,2.1,30.20,West,270,6.3,12.1,46,0.00,,,0.00,WUHU216HW,2013-02-18 07:43:00,
2013-02-18 02:48:00,19.8,2.3,30.20,NW,315,5.4,8.5,46,0.00,,,0.00,WUHU216HW,2013-02-18 07:48:00,
2013-02-18 02:53:00,19.6,2.1,30.20,NW,315,9.8,9.8,46,0.00,,,0.00,WUHU216HW,2013-02-18 07:53:00,
2013-02-18 02:58:00,19.8,2.3,30.20,NNW,338,3.6,9.8,46,0.00,,,0.00,WUHU216HW,2013-02-18 07:58:00,
2013-02-18 03:03:00,19.6,2.1,30.20,NNW,338,3.8,8.5,46,0.00,,,0.00,WUHU216HW,2013-02-18 08:03:00,
2013-02-18 03:08:00,19.4,1.9,30.20,NW,315,4.0,8.1,46,0.00,,,0.00,WUHU216HW,2013-02-18 08:08:00,
2013-02-18 03:13:00,19.4,2.3,30.21,NW,315,7.6,8.1,47,0.00,,,0.00,WUHU216HW,2013-02-18 08:13:00,
2013-02-18 03:18:00,19.3,2.3,30.21,NW,315,4.0,7.8,47,0.00,,,0.00,WUHU216HW,2013-02-18 08:18:00,
2013-02-18 03:23:00,19.3,2.3,30.20,WSW,248,5.1,10.1,47,0.00,,,0.00,WUHU216HW,2013-02-18 08:23:00,
2013-02-18 03:28:00,19.3,2.3,30.20,WNW,293,8.5,11.0,47,0.00,,,0.00,WUHU216HW,2013-02-18 08:28:00,
2013-02-18 03:29:00,19.3,2.3,30.20,NNW,338,3.4,11.0,47,0.00,,,0.00,WUHU216HW,2013-02-18 08:29:00,
2013-02-18 05:00:00,18.9,2.3,30.26,WNW,293,5.4,5.4,48,0.00,,,0.00,WUHU216HW,2013-02-18 10:00:00,
2013-02-18 05:05:00,18.9,2.3,30.26,West,270,4.0,7.6,48,0.00,,,0.00,WUHU216HW,2013-02-18 10:05:00,
2013-02-18 05:10:00,18.7,2.7,30.27,NNW,338,9.8,9.8,49,0.00,,,0.00,WUHU216HW,2013-02-18 10:10:00,
2013-02-18 05:15:00,18.7,2.7,30.27,WSW,248,5.4,9.8,49,0.00,,,0.00,WUHU216HW,2013-02-18 10:15:00,
2013-02-18 05:22:00,18.9,2.8,30.27,West,270,5.4,5.4,49,0.00,,,0.00,WUHU216HW,2013-02-18 10:22:00,
2013-02-18 05:27:00,18.9,2.8,30.28,WSW,248,3.6,6.5,49,0.00,,,0.00,WUHU216HW,2013-02-18 10:27:00,
2013-02-18 05:32:00,18.9,2.3,30.28,WNW,293,6.9,11.9,48,0.00,,,0.00,WUHU216HW,2013-02-18 10:32:00,
2013-02-18 05:37:00,18.7,2.7,30.28,NW,315,2.0,11.9,49,0.00,,,0.00,WUHU216HW,2013-02-18 10:37:00,
2013-02-18 05:42:00,18.7,2.7,30.28,WSW,248,6.3,6.9,49,0.00,,,0.00,WUHU216HW,2013-02-18 10:42:00,
2013-02-18 05:47:00,18.7,2.7,30.28,NW,315,5.8,8.5,49,0.00,,,0.00,WUHU216HW,2013-02-18 10:47:00,
2013-02-18 05:52:00,18.7,2.7,30.28,WNW,293,4.3,8.5,49,0.00,,,0.00,WUHU216HW,2013-02-18 10:52:00,
2013-02-18 05:59:00,18.7,2.7,30.28,WNW,293,4.3,5.4,49,0.00,,,0.00,WUHU216HW,2013-02-18 10:59:00,
2013-02-18 06:04:00,18.5,3.0,30.29,North,0,4.5,10.5,50,0.00,,,0.00,WUHU216HW,2013-02-18 11:04:00,
2013-02-18 06:09:00,18.5,3.0,30.29,NNW,338,2.2,10.5,50,0.00,,,0.00,WUHU216HW,2013-02-18 11:09:00,
2013-02-18 06:14:00,18.5,3.0,30.29,WNW,293,6.9,9.8,50,0.00,,,0.00,WUHU216HW,2013-02-18 11:14:00,
2013-02-18 06:19:00,18.5,3.0,30.29,NNW,338,3.4,12.8,50,0.00,,,0.00,WUHU216HW,2013-02-18 11:19:00,
2013-02-18 06:24:00,18.4,2.8,30.30,NW,315,5.8,12.8,50,0.00,,,0.00,WUHU216HW,2013-02-18 11:24:00,
2013-02-18 06:28:00,18.4,2.8,30.30,NW,315,6.5,6.5,50,0.00,,,0.00,WUHU216HW,2013-02-18 11:28:00,
2013-02-18 06:29:00,18.4,2.8,30.30,NW,315,6.5,6.5,50,0.00,,,0.00,WUHU216HW,2013-02-18 11:29:00,
2013-02-18 07:01:00,18.4,2.8,30.33,NNW,338,4.0,4.0,50,0.00,,,0.00,WUHU216HW,2013-02-18 12:01:00,
2013-02-18 07:06:00,18.5,3.3,30.33,WSW,248,4.7,7.6,51,0.00,,,0.00,WUHU216HW,2013-02-18 12:06:00,
2013-02-18 07:11:00,18.7,3.5,30.33,West,270,3.1,7.6,51,0.00,,,0.00,WUHU216HW,2013-02-18 12:11:00,
2013-02-18 07:16:00,18.7,3.5,30.33,NW,315,4.3,7.8,51,0.00,,,0.00,WUHU216HW,2013-02-18 12:16:00,
2013-02-18 07:21:00,18.7,3.5,30.34,NW,315,6.3,7.8,51,0.00,,,0.00,WUHU216HW,2013-02-18 12:21:00,
2013-02-18 07:26:00,18.9,3.7,30.34,NW,315,4.3,7.6,51,0.00,,,0.00,WUHU216HW,2013-02-18 12:26:00,
2013-02-18 07:30:00,19.1,3.9,30.35,West,270,5.6,6.9,51,0.00,,,0.00,WUHU216HW,2013-02-18 12:30:00,
2013-02-18 07:38:00,19.1,3.9,30.35,West,270,5.6,6.9,51,0.00,,,0.00,WUHU216HW,2013-02-18 12:38:00,
2013-02-18 08:00:00,20.0,4.2,30.36,West,270,6.5,6.5,50,0.00,,,0.00,WUHU216HW,2013-02-18 13:00:00,
2013-02-18 08:05:00,20.2,4.0,30.36,West,270,4.0,7.2,49,0.00,,,0.00,WUHU216HW,2013-02-18 13:05:00,
2013-02-18 08:10:00,20.3,4.6,30.37,West,270,6.0,7.4,50,0.00,,,0.00,WUHU216HW,2013-02-18 13:10:00,
2013-02-18 08:15:00,20.5,4.3,30.37,North,0,8.9,8.9,49,0.00,,,0.00,WUHU216HW,2013-02-18 13:15:00,
2013-02-18 08:20:00,20.5,4.3,30.37,NW,315,13.6,13.6,49,0.00,,,0.00,WUHU216HW,2013-02-18 13:20:00,
2013-02-18 08:25:00,20.7,4.4,30.37,NW,315,7.2,13.6,49,0.00,,,0.00,WUHU216HW,2013-02-18 13:25:00,
2013-02-18 08:31:00,21.1,4.3,30.38,NNW,338,4.0,7.8,48,0.00,,,0.00,WUHU216HW,2013-02-18 13:31:00,
2013-02-18 08:36:00,21.2,4.5,30.38,NNW,338,5.6,7.8,48,0.00,,,0.00,WUHU216HW,2013-02-18 13:36:00,
2013-02-18 08:41:00,21.2,4.0,30.38,North,0,7.2,8.3,47,0.00,,,0.00,WUHU216HW,2013-02-18 13:41:00,
2013-02-18 08:46:00,21.2,4.5,30.38,NNW,338,3.8,8.3,48,0.00,,,0.00,WUHU216HW,2013-02-18 13:46:00,
2013-02-18 08:51:00,21.6,4.9,30.38,West,270,5.6,7.6,48,0.00,,,0.00,WUHU216HW,2013-02-18 13:51:00,
2013-02-18 08:56:00,21.8,5.0,30.38,NW,315,4.9,7.6,48,0.00,,,0.00,WUHU216HW,2013-02-18 13:56:00,
2013-02-18 09:01:00,22.0,4.7,30.38,NNW,338,4.7,6.3,47,0.00,,,0.00,WUHU216HW,2013-02-18 14:01:00,
2013-02-18 09:08:00,22.3,5.0,30.38,WNW,293,6.0,6.0,47,0.00,,,0.00,WUHU216HW,2013-02-18 14:08:00,
2013-02-18 09:13:00,22.5,4.8,30.39,NW,315,6.3,9.8,46,0.00,,,0.00,WUHU216HW,2013-02-18 14:13:00,
2013-02-18 09:18:00,22.5,4.8,30.39,NW,315,7.4,9.8,46,0.00,,,0.00,WUHU216HW,2013-02-18 14:18:00,
2013-02-18 09:23:00,22.7,5.0,30.39,West,270,4.9,7.8,46,0.00,,,0.00,WUHU216HW,2013-02-18 14:23:00,
2013-02-18 09:31:00,23.4,5.6,30.39,North,0,2.2,5.6,46,0.00,,,0.00,WUHU216HW,2013-02-18 14:31:00,
2013-02-18 09:36:00,23.8,6.0,30.40,WNW,293,5.4,6.0,46,0.00,,,0.00,WUHU216HW,2013-02-18 14:36:00,
2013-02-18 09:41:00,23.9,6.0,30.40,North,0,3.4,6.3,46,0.00,,,0.00,WUHU216HW,2013-02-18 14:41:00,
2013-02-18 09:46:00,24.3,6.0,30.40,WNW,293,6.3,6.3,45,0.00,,,0.00,WUHU216HW,2013-02-18 14:46:00,
2013-02-18 09:51:00,24.3,5.4,30.40,NW,315,5.1,6.7,44,0.00,,,0.00,WUHU216HW,2013-02-18 14:51:00,
2013-02-18 09:59:00,24.7,6.2,30.40,WNW,293,6.5,6.5,45,0.00,,,0.00,WUHU216HW,2013-02-18 14:59:00,
2013-02-18 10:04:00,25.0,6.6,30.40,NW,315,4.0,6.5,45,0.00,,,0.00,WUHU216HW,2013-02-18 15:04:00,
2013-02-18 10:10:00,25.2,6.2,30.41,WNW,293,4.7,7.6,44,0.00,,,0.00,WUHU216HW,2013-02-18 15:10:00,
2013-02-18 10:16:00,25.6,7.0,30.41,NNW,338,4.3,7.4,45,0.00,,,0.00,WUHU216HW,2013-02-18 15:16:00,
2013-02-18 10:21:00,25.9,6.8,30.40,NNW,338,10.7,10.7,44,0.00,,,0.00,WUHU216HW,2013-02-18 15:21:00,
2013-02-18 10:26:00,26.3,6.8,30.40,West,270,3.1,10.7,43,0.00,,,0.00,WUHU216HW,2013-02-18 15:26:00,
2013-02-18 10:31:00,26.5,6.8,30.40,West,270,5.4,7.4,43,0.00,,,0.00,WUHU216HW,2013-02-18 15:31:00,
2013-02-18 10:36:00,26.5,6.8,30.40,WSW,248,2.7,7.4,43,0.00,,,0.00,WUHU216HW,2013-02-18 15:36:00,
2013-02-18 10:41:00,26.8,7.2,30.40,West,270,3.8,6.9,43,0.00,,,0.00,WUHU216HW,2013-02-18 15:41:00,
2013-02-18 10:52:00,27.4,7.2,30.40,WNW,293,3.8,3.8,42,0.00,,,0.00,WUHU216HW,2013-02-18 15:52:00,
2013-02-18 10:57:00,27.7,7.6,30.40,WNW,293,4.7,5.8,42,0.00,,,0.00,WUHU216HW,2013-02-18 15:57:00,
2013-02-18 11:02:00,27.7,7.0,30.41,NNW,338,5.4,6.9,41,0.00,,,0.00,WUHU216HW,2013-02-18 16:02:00,
2013-02-18 11:07:00,28.1,7.9,30.40,North,0,2.0,6.9,42,0.00,,,0.00,WUHU216HW,2013-02-18 16:07:00,
2013-02-18 11:12:00,28.3,7.6,30.40,West,270,4.0,7.6,41,0.00,,,0.00,WUHU216HW,2013-02-18 16:12:00,
2013-02-18 11:17:00,28.8,8.6,30.40,West,270,5.4,7.6,42,0.00,,,0.00,WUHU216HW,2013-02-18 16:17:00,
2013-02-18 11:22:00,29.0,8.2,30.40,SW,225,6.3,6.3,41,0.00,,,0.00,WUHU216HW,2013-02-18 16:22:00,
2013-02-18 11:29:00,29.3,8.6,30.40,West,270,2.5,6.3,41,0.00,,,0.00,WUHU216HW,2013-02-18 16:29:00,
2013-02-18 11:34:00,29.5,8.2,30.39,SW,225,2.9,6.5,40,0.00,,,0.00,WUHU216HW,2013-02-18 16:34:00,
2013-02-18 11:39:00,29.9,7.8,30.39,NW,315,5.4,6.5,39,0.00,,,0.00,WUHU216HW,2013-02-18 16:39:00,
2013-02-18 11:44:00,30.1,7.4,30.39,NW,315,8.5,8.5,38,0.00,,,0.00,WUHU216HW,2013-02-18 16:44:00,
2013-02-18 11:49:00,30.4,8.4,30.39,NNW,338,5.4,8.5,39,0.00,,,0.00,WUHU216HW,2013-02-18 16:49:00,
2013-02-18 11:54:00,30.6,8.6,30.39,West,270,5.1,6.7,39,0.00,,,0.00,WUHU216HW,2013-02-18 16:54:00,
2013-02-18 12:00:00,30.8,8.0,30.39,NW,315,7.6,7.6,38,0.00,,,0.00,WUHU216HW,2013-02-18 17:00:00,
2013-02-18 12:05:00,31.1,8.4,30.39,WNW,293,3.6,9.4,38,0.00,,,0.00,WUHU216HW,2013-02-18 17:05:00,
2013-02-18 12:10:00,31.3,8.6,30.39,WSW,248,1.8,9.4,38,0.00,,,0.00,WUHU216HW,2013-02-18 17:10:00,
2013-02-18 12:15:00,31.3,8.6,30.38,WSW,248,5.4,8.1,38,0.00,,,0.00,WUHU216HW,2013-02-18 17:15:00,
2013-02-18 12:20:00,31.3,7.9,30.38,NW,315,6.7,8.9,37,0.00,,,0.00,WUHU216HW,2013-02-18 17:20:00,
2013-02-18 12:25:00,31.3,8.6,30.38,NNW,338,2.5,10.5,38,0.00,,,0.00,WUHU216HW,2013-02-18 17:25:00,
2013-02-18 12:30:00,31.7,8.2,30.38,NW,315,7.4,9.2,37,0.00,,,0.00,WUHU216HW,2013-02-18 17:30:00,
2013-02-18 12:35:00,31.7,8.2,30.37,NW,315,3.6,9.2,37,0.00,,,0.00,WUHU216HW,2013-02-18 17:35:00,
2013-02-18 12:40:00,32.4,9.6,30.37,NNW,338,4.0,7.2,38,0.00,,,0.00,WUHU216HW,2013-02-18 17:40:00,
2013-02-18 12:45:00,32.8,9.8,30.37,West,270,5.1,5.6,38,0.00,,,0.00,WUHU216HW,2013-02-18 17:45:00,
2013-02-18 12:50:00,32.9,8.7,30.37,West,270,2.9,8.7,36,0.00,,,0.00,WUHU216HW,2013-02-18 17:50:00,
2013-02-18 12:55:00,32.8,9.2,30.37,NNW,338,4.3,8.7,37,0.00,,,0.00,WUHU216HW,2013-02-18 17:55:00,
2013-02-18 13:00:00,33.1,9.6,30.37,NW,315,6.7,7.4,37,0.00,,,0.00,WUHU216HW,2013-02-18 18:00:00,
2013-02-18 13:05:00,33.5,9.8,30.37,NW,315,2.2,6.9,37,0.00,,,0.00,WUHU216HW,2013-02-18 18:05:00,
2013-02-18 13:10:00,33.8,9.5,30.36,WNW,293,3.6,7.4,36,0.00,,,0.00,WUHU216HW,2013-02-18 18:10:00,
2013-02-18 13:15:00,34.0,10.4,30.36,West,270,1.1,7.4,37,0.00,,,0.00,WUHU216HW,2013-02-18 18:15:00,
2013-02-18 13:20:00,34.4,10.6,30.36,WSW,248,3.1,5.6,37,0.00,,,0.00,WUHU216HW,2013-02-18 18:20:00,
2013-02-18 13:25:00,34.7,10.4,30.35,NW,315,4.7,6.9,36,0.00,,,0.00,WUHU216HW,2013-02-18 18:25:00,
2013-02-18 13:30:00,34.6,10.8,30.35,WSW,248,2.5,6.9,37,0.00,,,0.00,WUHU216HW,2013-02-18 18:30:00,
2013-02-18 13:36:00,34.7,11.0,30.35,WSW,248,4.3,6.0,37,0.00,,,0.00,WUHU216HW,2013-02-18 18:36:00,
2013-02-18 13:41:00,34.7,10.4,30.35,North,0,4.7,6.3,36,0.00,,,0.00,WUHU216HW,2013-02-18 18:41:00,
2013-02-18 13:46:00,35.1,11.3,30.35,NW,315,1.8,6.7,37,0.00,,,0.00,WUHU216HW,2013-02-18 18:46:00,
2013-02-18 13:50:00,35.3,10.2,30.35,NW,315,6.3,6.7,35,0.00,,,0.00,WUHU216HW,2013-02-18 18:50:00,
2013-02-18 13:55:00,35.3,10.2,30.35,West,270,3.4,6.7,35,0.00,,,0.00,WUHU216HW,2013-02-18 18:55:00,
2013-02-18 14:01:00,35.3,10.2,30.35,WNW,293,3.4,7.4,35,0.00,,,0.00,WUHU216HW,2013-02-18 19:01:00,
2013-02-18 14:06:00,35.3,10.8,30.34,West,270,3.1,7.4,36,0.00,,,0.00,WUHU216HW,2013-02-18 19:06:00,
2013-02-18 14:11:00,35.6,10.4,30.34,North,0,2.5,6.9,35,0.00,,,0.00,WUHU216HW,2013-02-18 19:11:00,
2013-02-18 14:16:00,35.8,10.6,30.34,WNW,293,3.8,7.4,35,0.00,,,0.00,WUHU216HW,2013-02-18 19:16:00,
2013-02-18 14:21:00,36.0,9.5,30.34,WNW,293,4.0,7.4,33,0.00,,,0.00,WUHU216HW,2013-02-18 19:21:00,
2013-02-18 14:26:00,36.0,11.4,30.33,West,270,0.7,6.9,36,0.00,,,0.00,WUHU216HW,2013-02-18 19:26:00,
2013-02-18 14:31:00,37.3,12.5,30.33,NW,315,6.3,6.3,36,0.00,,,0.00,WUHU216HW,2013-02-18 19:31:00,
2013-02-18 14:36:00,37.4,10.8,30.33,NW,315,7.8,7.8,33,0.00,,,0.00,WUHU216HW,2013-02-18 19:36:00,
2013-02-18 14:41:00,37.1,11.7,30.33,West,270,2.0,7.8,35,0.00,,,0.00,WUHU216HW,2013-02-18 19:41:00,
2013-02-18 14:46:00,37.4,12.1,30.33,NNW,338,4.7,7.6,35,0.00,,,0.00,WUHU216HW,2013-02-18 19:46:00,
2013-02-18 14:51:00,37.8,12.4,30.33,NNW,338,5.4,7.6,35,0.00,,,0.00,WUHU216HW,2013-02-18 19:51:00,
2013-02-18 14:56:00,38.3,10.9,30.34,NW,315,4.7,5.4,32,0.00,,,0.00,WUHU216HW,2013-02-18 19:56:00,
2013-02-18 15:01:00,38.3,11.6,30.34,WNW,293,2.0,4.7,33,0.00,,,0.00,WUHU216HW,2013-02-18 20:01:00,
2013-02-18 15:06:00,38.5,11.1,30.34,WSW,248,2.5,5.6,32,0.00,,,0.00,WUHU216HW,2013-02-18 20:06:00,
2013-02-18 15:11:00,38.5,11.7,30.33,SSW,203,3.8,5.6,33,0.00,,,0.00,WUHU216HW,2013-02-18 20:11:00,
2013-02-18 15:16:00,38.9,11.4,30.33,WNW,293,4.5,4.5,32,0.00,,,0.00,WUHU216HW,2013-02-18 20:16:00,
2013-02-18 15:21:00,38.9,12.1,30.33,NNW,338,4.0,7.4,33,0.00,,,0.00,WUHU216HW,2013-02-18 20:21:00,
2013-02-18 15:36:00,39.2,12.4,30.33,West,270,3.1,3.1,33,0.00,,,0.00,WUHU216HW,2013-02-18 20:36:00,
2013-02-18 15:46:00,40.0,11.7,30.33,WNW,293,5.4,7.4,31,0.00,,,0.00,WUHU216HW,2013-02-18 20:46:00,
2013-02-18 15:51:00,40.0,11.7,30.34,West,270,7.4,7.4,31,0.00,,,0.00,WUHU216HW,2013-02-18 20:51:00,
2013-02-18 15:56:00,39.6,12.1,30.34,West,270,5.4,7.4,32,0.00,,,0.00,WUHU216HW,2013-02-18 20:56:00,
2013-02-18 16:01:00,38.9,11.4,30.34,WSW,248,3.4,5.4,32,0.00,,,0.00,WUHU216HW,2013-02-18 21:01:00,
2013-02-18 16:06:00,38.2,10.8,30.34,NW,315,3.4,4.9,32,0.00,,,0.00,WUHU216HW,2013-02-18 21:06:00,
2013-02-18 16:11:00,38.0,11.9,30.34,West,270,0.9,4.9,34,0.00,,,0.00,WUHU216HW,2013-02-18 21:11:00,
2013-02-18 16:16:00,38.5,11.7,30.35,NNW,338,3.4,4.7,33,0.00,,,0.00,WUHU216HW,2013-02-18 21:16:00,
2013-02-18 16:21:00,38.2,11.4,30.35,NW,315,7.6,7.6,33,0.00,,,0.00,WUHU216HW,2013-02-18 21:21:00,
2013-02-18 16:26:00,37.8,11.1,30.35,WNW,293,4.7,7.6,33,0.00,,,0.00,WUHU216HW,2013-02-18 21:26:00,
2013-02-18 16:31:00,38.2,11.4,30.35,WSW,248,2.9,4.9,33,0.00,,,0.00,WUHU216HW,2013-02-18 21:31:00,
2013-02-18 16:36:00,38.2,12.7,30.34,WNW,293,2.2,4.9,35,0.00,,,0.00,WUHU216HW,2013-02-18 21:36:00,
2013-02-18 16:41:00,37.8,11.1,30.34,WSW,248,4.3,5.4,33,0.00,,,0.00,WUHU216HW,2013-02-18 21:41:00,
2013-02-18 16:46:00,38.9,12.7,30.34,WNW,293,1.1,5.4,34,0.00,,,0.00,WUHU216HW,2013-02-18 21:46:00,
2013-02-18 16:51:00,39.4,13.2,30.35,West,270,2.0,4.3,34,0.00,,,0.00,WUHU216HW,2013-02-18 21:51:00,
2013-02-18 16:56:00,39.2,11.7,30.34,WSW,248,2.2,4.0,32,0.00,,,0.00,WUHU216HW,2013-02-18 21:56:00,
2013-02-18 17:01:00,39.1,12.9,30.34,WSW,248,4.3,4.3,34,0.00,,,0.00,WUHU216HW,2013-02-18 22:01:00,
2013-02-18 17:06:00,39.6,14.1,30.35,West,270,1.6,4.3,35,0.00,,,0.00,WUHU216HW,2013-02-18 22:06:00,
2013-02-18 17:11:00,38.9,13.3,30.35,NNW,338,1.6,3.6,35,0.00,,,0.00,WUHU216HW,2013-02-18 22:11:00,
2013-02-18 17:16:00,38.2,12.7,30.35,NNW,338,1.8,3.6,35,0.00,,,0.00,WUHU216HW,2013-02-18 22:16:00,
2013-02-18 17:21:00,37.4,12.7,30.35,WNW,293,1.1,2.0,36,0.00,,,0.00,WUHU216HW,2013-02-18 22:21:00,
2013-02-18 17:26:00,36.9,12.3,30.35,West,270,1.6,2.0,36,0.00,,,0.00,WUHU216HW,2013-02-18 22:26:00,
2013-02-18 17:31:00,36.4,11.7,30.35,NW,315,0.4,3.1,36,0.00,,,0.00,WUHU216HW,2013-02-18 22:31:00,
2013-02-18 17:37:00,35.8,11.9,30.35,West,270,1.1,1.8,37,0.00,,,0.00,WUHU216HW,2013-02-18 22:37:00,
2013-02-18 17:42:00,35.6,11.7,30.36,SW,225,0.2,1.6,37,0.00,,,0.00,WUHU216HW,2013-02-18 22:42:00,
2013-02-18 17:47:00,35.3,12.1,30.36,WNW,293,1.1,2.0,38,0.00,,,0.00,WUHU216HW,2013-02-18 22:47:00,
2013-02-18 17:52:00,35.1,11.9,30.36,WSW,248,0.4,2.0,38,0.00,,,0.00,WUHU216HW,2013-02-18 22:52:00,
2013-02-18 17:57:00,34.9,11.8,30.36,West,270,1.3,1.6,38,0.00,,,0.00,WUHU216HW,2013-02-18 22:57:00,
2013-02-18 18:02:00,34.7,12.3,30.36,West,270,0.4,1.6,39,0.00,,,0.00,WUHU216HW,2013-02-18 23:02:00,
2013-02-18 18:07:00,34.6,12.1,30.36,NW,315,0.0,1.1,39,0.00,,,0.00,WUHU216HW,2013-02-18 23:07:00,
2013-02-18 18:12:00,34.4,11.9,30.36,SSW,203,0.4,1.1,39,0.00,,,0.00,WUHU216HW,2013-02-18 23:12:00,
2013-02-18 18:17:00,34.2,11.8,30.36,SSW,203,0.0,0.7,39,0.00,,,0.00,WUHU216HW,2013-02-18 23:17:00,
2013-02-18 18:22:00,34.2,12.4,30.36,SSW,203,0.0,0.0,40,0.00,,,0.00,WUHU216HW,2013-02-18 23:22:00,
2013-02-18 18:27:00,34.0,12.3,30.36,SSW,203,0.0,0.4,40,0.00,,,0.00,WUHU216HW,2013-02-18 23:27:00,
2013-02-18 18:33:00,33.7,11.9,30.37,SSW,203,0.0,0.4,40,0.00,,,0.00,WUHU216HW,2013-02-18 23:33:00,
2013-02-18 18:38:00,33.5,11.7,30.37,SW,225,0.2,0.4,40,0.00,,,0.00,WUHU216HW,2013-02-18 23:38:00,
2013-02-18 18:43:00,33.3,12.1,30.37,SW,225,0.4,0.4,41,0.00,,,0.00,WUHU216HW,2013-02-18 23:43:00,
2013-02-18 18:48:00,33.1,11.9,30.37,SW,225,0.0,0.4,41,0.00,,,0.00,WUHU216HW,2013-02-18 23:48:00,
2013-02-18 18:53:00,32.9,11.8,30.37,SW,225,0.0,0.2,41,0.00,,,0.00,WUHU216HW,2013-02-18 23:53:00,
2013-02-18 18:57:00,32.8,12.1,30.38,SW,225,0.0,0.7,42,0.00,,,0.00,WUHU216HW,2013-02-18 23:57:00,
2013-02-18 19:02:00,32.8,11.6,30.37,SW,225,0.0,0.7,41,0.00,,,0.00,WUHU216HW,2013-02-19 00:02:00,
2013-02-18 19:08:00,32.6,11.4,30.37,SW,225,0.0,0.4,41,0.00,,,0.00,WUHU216HW,2013-02-19 00:08:00,
2013-02-18 19:13:00,32.4,11.8,30.37,WSW,248,0.7,0.7,42,0.00,,,0.00,WUHU216HW,2013-02-19 00:13:00,
2013-02-18 19:18:00,32.2,11.6,30.37,SW,225,0.0,0.7,42,0.00,,,0.00,WUHU216HW,2013-02-19 00:18:00,
2013-02-18 19:23:00,32.2,11.6,30.37,SW,225,0.2,0.4,42,0.00,,,0.00,WUHU216HW,2013-02-19 00:23:00,
2013-02-18 19:28:00,32.0,11.4,30.36,SW,225,0.0,0.2,42,0.00,,,0.00,WUHU216HW,2013-02-19 00:28:00,
2013-02-18 19:33:00,32.0,11.4,30.36,SW,225,0.0,0.0,42,0.00,,,0.00,WUHU216HW,2013-02-19 00:33:00,
2013-02-18 19:39:00,31.9,11.8,30.36,SW,225,0.4,0.4,43,0.00,,,0.00,WUHU216HW,2013-02-19 00:39:00,
2013-02-18 19:44:00,31.7,11.6,30.37,SW,225,0.0,0.4,43,0.00,,,0.00,WUHU216HW,2013-02-19 00:44:00,
2013-02-18 19:49:00,31.7,11.6,30.37,SW,225,0.0,0.7,43,0.00,,,0.00,WUHU216HW,2013-02-19 00:49:00,
2013-02-18 19:54:00,31.5,12.0,30.37,SW,225,0.0,0.7,44,0.00,,,0.00,WUHU216HW,2013-02-19 00:54:00,
2013-02-18 19:59:00,31.3,11.8,30.37,WSW,248,0.9,0.9,44,0.00,,,0.00,WUHU216HW,2013-02-19 00:59:00,
2013-02-18 20:04:00,31.1,11.6,30.37,WSW,248,0.4,0.9,44,0.00,,,0.00,WUHU216HW,2013-02-19 01:04:00,
2013-02-18 20:09:00,31.1,11.6,30.37,WSW,248,0.0,1.1,44,0.00,,,0.00,WUHU216HW,2013-02-19 01:09:00,
2013-02-18 20:14:00,31.1,11.6,30.38,SW,225,0.2,1.1,44,0.00,,,0.00,WUHU216HW,2013-02-19 01:14:00,
2013-02-18 20:19:00,31.0,12.0,30.38,WSW,248,0.0,1.1,45,0.00,,,0.00,WUHU216HW,2013-02-19 01:19:00,
2013-02-18 20:24:00,31.0,12.0,30.38,WSW,248,0.9,1.1,45,0.00,,,0.00,WUHU216HW,2013-02-19 01:24:00,
2013-02-18 20:29:00,31.0,12.0,30.37,WSW,248,0.9,2.5,45,0.00,,,0.00,WUHU216HW,2013-02-19 01:29:00,
2013-02-18 20:34:00,31.0,12.0,30.37,WSW,248,0.4,2.5,45,0.00,,,0.00,WUHU216HW,2013-02-19 01:34:00,
2013-02-18 20:39:00,31.0,12.0,30.37,SW,225,2.0,2.5,45,0.00,,,0.00,WUHU216HW,2013-02-19 01:39:00,
2013-02-18 20:44:00,31.0,12.0,30.37,SSE,158,1.1,2.5,45,0.00,,,0.00,WUHU216HW,2013-02-19 01:44:00,
2013-02-18 20:49:00,31.1,12.2,30.37,SSW,203,0.7,1.6,45,0.00,,,0.00,WUHU216HW,2013-02-19 01:49:00,
2013-02-18 20:54:00,31.1,12.2,30.37,SW,225,1.6,1.8,45,0.00,,,0.00,WUHU216HW,2013-02-19 01:54:00,
2013-02-18 20:59:00,31.1,12.7,30.37,SW,225,0.4,1.8,46,0.00,,,0.00,WUHU216HW,2013-02-19 01:59:00,
2013-02-18 21:04:00,31.1,12.7,30.37,SW,225,0.4,1.8,46,0.00,,,0.00,WUHU216HW,2013-02-19 02:04:00,
2013-02-18 21:09:00,31.3,12.8,30.37,SSW,203,1.1,2.5,46,0.00,,,0.00,WUHU216HW,2013-02-19 02:09:00,
2013-02-18 21:14:00,31.1,12.7,30.37,WSW,248,0.7,2.5,46,0.00,,,0.00,WUHU216HW,2013-02-19 02:14:00,
2013-02-18 21:19:00,31.1,12.7,30.37,WSW,248,0.4,2.2,46,0.00,,,0.00,WUHU216HW,2013-02-19 02:19:00,
2013-02-18 21:24:00,31.1,12.7,30.37,SW,225,0.2,1.6,46,0.00,,,0.00,WUHU216HW,2013-02-19 02:24:00,
2013-02-18 21:29:00,31.1,12.7,30.36,SSE,158,0.4,0.7,46,0.00,,,0.00,WUHU216HW,2013-02-19 02:29:00,
2013-02-18 21:34:00,31.1,12.7,30.37,SSW,203,0.4,0.7,46,0.00,,,0.00,WUHU216HW,2013-02-19 02:34:00,
2013-02-18 21:39:00,31.1,12.7,30.37,SSE,158,0.0,0.7,46,0.00,,,0.00,WUHU216HW,2013-02-19 02:39:00,
2013-02-18 21:45:00,31.0,12.5,30.37,SSE,158,0.0,0.7,46,0.00,,,0.00,WUHU216HW,2013-02-19 02:45:00,
2013-02-18 21:50:00,31.0,13.0,30.38,SE,135,0.7,0.7,47,0.00,,,0.00,WUHU216HW,2013-02-19 02:50:00,
2013-02-18 21:55:00,31.0,13.0,30.38,SE,135,0.0,1.1,47,0.00,,,0.00,WUHU216HW,2013-02-19 02:55:00,
2013-02-18 22:00:00,31.0,13.0,30.38,SSW,203,0.4,1.1,47,0.00,,,0.00,WUHU216HW,2013-02-19 03:00:00,
2013-02-18 22:05:00,30.8,12.9,30.38,SE,135,0.4,0.7,47,0.00,,,0.00,WUHU216HW,2013-02-19 03:05:00,
2013-02-18 22:10:00,30.8,12.9,30.37,SSE,158,0.4,1.1,47,0.00,,,0.00,WUHU216HW,2013-02-19 03:10:00,
2013-02-18 22:15:00,30.8,12.9,30.37,SSE,158,0.7,1.1,47,0.00,,,0.00,WUHU216HW,2013-02-19 03:15:00,
2013-02-18 22:20:00,30.6,13.1,30.37,SSE,158,0.0,0.7,48,0.00,,,0.00,WUHU216HW,2013-02-19 03:20:00,
2013-02-18 22:25:00,30.6,13.1,30.37,South,180,0.4,0.9,48,0.00,,,0.00,WUHU216HW,2013-02-19 03:25:00,
2013-02-18 22:30:00,30.6,13.1,30.37,SSW,203,1.6,1.6,48,0.00,,,0.00,WUHU216HW,2013-02-19 03:30:00,
2013-02-18 22:36:00,30.4,13.1,30.37,SSW,203,0.0,1.6,48,0.00,,,0.00,WUHU216HW,2013-02-19 03:36:00,
2013-02-18 22:41:00,30.4,13.1,30.37,SW,225,0.0,0.7,48,0.00,,,0.00,WUHU216HW,2013-02-19 03:41:00,
2013-02-18 22:47:00,30.2,12.9,30.37,SW,225,0.0,1.1,48,0.00,,,0.00,WUHU216HW,2013-02-19 03:47:00,
2013-02-18 22:52:00,30.2,12.9,30.37,SW,225,0.0,1.1,48,0.00,,,0.00,WUHU216HW,2013-02-19 03:52:00,
2013-02-18 22:57:00,30.2,13.3,30.36,SW,225,0.0,0.2,49,0.00,,,0.00,WUHU216HW,2013-02-19 03:57:00,
2013-02-18 23:02:00,30.2,13.3,30.36,SW,225,0.0,0.2,49,0.00,,,0.00,WUHU216HW,2013-02-19 04:02:00,
2013-02-18 23:07:00,30.1,13.2,30.36,SW,225,0.0,0.2,49,0.00,,,0.00,WUHU216HW,2013-02-19 04:07:00,
2013-02-18 23:12:00,30.1,13.2,30.36,SW,225,0.2,0.2,49,0.00,,,0.00,WUHU216HW,2013-02-19 04:12:00,
2013-02-18 23:17:00,29.9,13.5,30.36,SW,225,0.0,0.2,50,0.00,,,0.00,WUHU216HW,2013-02-19 04:17:00,
2013-02-18 23:22:00,29.9,13.5,30.36,SW,225,0.0,0.0,50,0.00,,,0.00,WUHU216HW,2013-02-19 04:22:00,
2013-02-18 23:27:00,29.9,13.5,30.36,SW,225,0.2,0.2,50,0.00,,,0.00,WUHU216HW,2013-02-19 04:27:00,
2013-02-18 23:32:00,29.9,13.5,30.36,SSW,203,0.0,0.2,50,0.00,,,0.00,WUHU216HW,2013-02-19 04:32:00,
2013-02-18 23:39:00,29.7,13.8,30.36,SE,135,0.0,0.2,51,0.00,,,0.00,WUHU216HW,2013-02-19 04:39:00,
2013-02-18 23:44:00,29.7,13.8,30.35,SE,135,0.0,0.4,51,0.00,,,0.00,WUHU216HW,2013-02-19 04:44:00,
2013-02-18 23:49:00,29.7,13.8,30.35,SE,135,0.0,0.4,51,0.00,,,0.00,WUHU216HW,2013-02-19 04:49:00,
2013-02-18 23:54:00,29.7,13.8,30.35,SE,135,0.0,0.4,51,0.00,,,0.00,WUHU216HW,2013-02-19 04:54:00,
2013-02-18 23:59:00,29.5,13.6,30.35,SW,225,0.0,0.4,51,0.00,,,0.00,WUHU216HW,2013-02-19 04:59:00,